RANA Weather Reports


Display with metric or nautical units.
time (UTC)temp
F
wind
direction
speed
MPH
gust
MPH
rain 1hr
in
rain 24hr
in
rain mn
in
humidity
%
barometer
mb
20201026121010 50 219 2.0 2.0 0.00 0.00 0.00 98
20201026120019 50 219 5.0 2.0 0.00 0.00 0.00 98
20201026115006 49 219 3.0 7.0 0.00 0.00 0.00 98
20201026114005 50 220 5.0 2.0 0.00 0.00 0.00 98
20201026113022 50 220 7.0 4.0 0.00 0.00 0.00 98
20201026112011 50 118 3.0 7.0 0.00 0.00 0.00 98
20201026111007 50 118 3.0 2.0 0.00 0.00 0.00 98
20201026110009 50 118 3.0 2.0 0.00 0.00 0.00 98
20201026105019 50 118 6.0 4.0 0.00 0.00 0.00 98
20201026104011 50 118 2.0 4.0 0.00 0.00 0.00 98
20201026103021 50 118 3.0 0.0 0.00 0.00 0.00 98
20201026102009 50 118 5.0 2.0 0.00 0.00 0.00 98
20201026101009 50 118 8.0 2.0 0.00 0.00 0.00 98
20201026100020 49 117 10.0 4.0 0.00 0.00 0.00 98
20201026095004 49 115 11.0 9.0 0.00 0.00 0.00 98
20201026094007 49 113 11.0 7.0 0.00 0.00 0.00 98
20201026093025 49 108 10.0 11.0 0.00 0.00 0.00 98
20201026092004 49 105 11.0 9.0 0.00 0.00 0.00 98
20201026091006 49 105 11.0 11.0 0.00 0.00 0.00 97
20201026090008 49 119 13.0 13.0 0.00 0.00 0.00 97
20201026085011 49 126 15.0 11.0 0.00 0.00 0.00 97
20201026084008 49 117 16.0 16.0 0.00 0.00 0.00 97
20201026083017 49 114 14.0 13.0 0.00 0.00 0.00 97
20201026082020 48 101 11.0 11.0 0.00 0.00 0.00 97
20201026081046 48 113 17.0 16.0 0.00 0.00 0.00 97
20201026080025 48 109 17.0 18.0 0.00 0.00 0.00 97
20201026075018 48 113 16.0 13.0 0.00 0.00 0.00 97
20201026074008 48 115 14.0 13.0 0.00 0.00 0.00 97
20201026071005 47 128 11.0 11.0 0.00 0.00 0.00 97
20201026070020 47 129 11.0 11.0 0.00 0.00 0.00 97
20201026065008 47 122 11.0 9.0 0.00 0.00 0.00 97
20201026064007 47 123 11.0 9.0 0.00 0.00 0.00 97
20201026063021 47 122 10.0 9.0 0.00 0.00 0.00 97
20201026062018 47 122 8.0 9.0 0.00 0.00 0.00 97
20201026061007 46 122 6.0 4.0 0.00 0.00 0.00 97
20201026060019 47 122 6.0 7.0 0.00 0.00 0.00 97
20201026055010 47 122 11.0 7.0 0.00 0.00 0.00 97
20201026054007 47 117 11.0 11.0 0.00 0.00 0.00 97
20201026053018 47 121 11.0 11.0 0.00 0.00 0.00 97
20201026052007 47 130 10.0 9.0 0.00 0.00 0.00 97
20201026051008 47 128 11.0 9.0 0.00 0.00 0.00 97
20201026050012 47 128 11.0 11.0 0.00 0.00 0.00 97
20201026045001 46 113 11.0 9.0 0.00 0.00 0.00 97
20201026044003 46 115 14.0 11.0 0.00 0.00 0.00 97
20201026043008 46 117 13.0 11.0 0.00 0.00 0.00 97
20201026042009 46 117 11.0 11.0 0.00 0.00 0.00 97
20201026041007 46 111 15.0 13.0 0.00 0.00 0.00 97
20201026040005 46 117 17.0 16.0 0.00 0.00 0.00 97
20201026035009 46 110 17.0 18.0 0.00 0.00 0.00 97
20201026034006 46 120 16.0 16.0 0.00 0.00 0.00 97
20201026033001 46 111 14.0 13.0 0.00 0.00 0.00 97
20201026032006 46 103 13.0 13.0 0.00 0.00 0.00 97
20201026031009 46 101 13.0 13.0 0.00 0.00 0.00 97
20201026030021 46 110 11.0 11.0 0.00 0.00 0.00 97
20201026025007 46 109 13.0 11.0 0.00 0.00 0.00 97
20201026024010 46 110 14.0 13.0 0.00 0.00 0.00 97
20201026023010 45 113 13.0 13.0 0.00 0.00 0.00 97
20201026022007 45 111 13.0 13.0 0.00 0.00 0.00 97
20201026021007 45 118 13.0 11.0 0.00 0.00 0.00 97
20201026020023 45 110 11.0 11.0 0.00 0.00 0.00 97
20201026015005 45 107 10.0 9.0 0.00 0.00 0.00 97
20201026014007 45 101 9.0 9.0 0.00 0.00 0.00 97
20201026013010 45 88 7.0 9.0 0.00 0.00 0.00 97
20201026012004 45 82 9.0 4.0 0.00 0.00 0.00 97
20201026011010 45 85 10.0 11.0 0.00 0.00 0.00 97
20201026010009 45 80 11.0 9.0 0.00 0.00 0.00 97
20201026005003 46 109 11.0 11.0 0.00 0.00 0.00 97
20201026004026 46 121 11.0 9.0 0.00 0.00 0.00 97
20201026003008 46 118 13.0 9.0 0.00 0.00 0.00 97
20201026002005 46 117 14.0 13.0 0.00 0.00 0.00 97
20201026001005 46 88 15.0 11.0 0.00 0.00 0.00 97
20201026000018 46 94 13.0 11.0 0.00 0.00 0.00 97
20201025235017 46 112 13.0 16.0 0.00 0.00 0.00 97
20201025234001 46 99 11.0 13.0 0.00 0.00 0.00 97
20201025231522 46 109 10.0 9.0 0.00 0.00 0.00 97
20201025230503 46 119 13.0 11.0 0.00 0.00 0.00 97
20201025230009 46 121 11.0 11.0 0.00 0.00 0.00 97
20201025225508 46 121 11.0 11.0 0.00 0.00 0.00 97
20201025224513 46 119 10.0 11.0 0.00 0.00 0.00 97
20201025223501 46 115 10.0 11.0 0.00 0.00 0.00 97
20201025222510 47 117 11.0 9.0 0.00 0.00 0.00 97
20201025221508 47 111 11.0 11.0 0.00 0.00 0.00 97
20201025220514 47 114 10.0 11.0 0.00 0.00 0.00 97
20201025215508 47 115 8.0 9.0 0.00 0.00 0.00 97
20201025214508 48 120 8.0 9.0 0.00 0.00 0.00 97
20201025213504 48 120 10.0 7.0 0.00 0.00 0.00 97
20201025212504 48 119 10.0 11.0 0.00 0.00 0.00 97
20201025211513 48 120 9.0 9.0 0.00 0.00 0.00 97
20201025210511 49 120 6.0 7.0 0.00 0.00 0.00 97
20201025205004 48 121 3.0 2.0 0.00 0.00 0.00 97
20201025204008 0 121 2.0 0.0 0.00 0.00 0.00 100
20201025203008 47 121 1.0 2.0 0.00 0.00 0.00 97
20201025202005 48 121 2.0 0.0 0.00 0.00 0.00 97
20201025201005 47 121 1.0 2.0 0.00 0.00 0.00 97
20201025200009 47 121 1.0 0.0 0.00 0.00 0.00 97
20201025195004 47 121 1.0 0.0 0.00 0.00 0.00 97
20201025194006 0 121 0.0 0.0 0.00 0.00 0.00 100
20201025193011 47 121 3.0 0.0 0.00 0.00 0.00 97
20201025192022 47 121 1.0 2.0 0.00 0.00 0.00 97
20201025191004 0 121 1.0 0.0 0.00 0.00 0.00 100
20201025190007 47 121 1.0 0.0 0.00 0.00 0.00 97
20201025185011 47 121 1.0 0.0 0.00 0.00 0.00 97
20201025184012 47 121 2.0 0.0 0.00 0.00 0.00 97
20201025183017 48 121 2.0 2.0 0.00 0.00 0.00 97
20201025182004 48 121 3.0 2.0 0.00 0.00 0.00 97
20201025181011 48 118 5.0 2.0 0.00 0.00 0.00 97
20201025180039 49 118 6.0 7.0 0.00 0.00 0.00 97
20201025175007 49 118 8.0 4.0 0.00 0.00 0.00 98
20201025174007 49 118 7.0 7.0 0.00 0.00 0.00 98
20201025173023 50 118 5.0 4.0 0.00 0.00 0.00 98
20201025172017 49 118 5.0 2.0 0.00 0.00 0.00 98
20201025171006 48 119 3.0 2.0 0.00 0.00 0.00 97
20201025170018 48 119 2.0 2.0 0.00 0.00 0.00 97
20201025165004 48 119 3.0 0.0 0.00 0.00 0.00 97
20201025164007 48 119 7.0 2.0 0.00 0.00 0.00 97
20201025163025 48 119 9.0 9.0 0.00 0.00 0.00 97
20201025162006 48 119 11.0 9.0 0.00 0.00 0.00 97
20201025161006 48 119 11.0 11.0 0.00 0.00 0.00 97
20201025160022 48 118 10.0 9.0 0.00 0.00 0.00 97
20201025155015 48 113 3.0 9.0 0.00 0.00 0.00 97
20201025154005 49 113 8.0 0.0 0.00 0.00 0.00 97
20201025153014 48 113 9.0 11.0 0.00 0.00 0.00 97
20201025152009 48 109 3.0 4.0 0.00 0.00 0.00 97
20201025151014 48 109 3.0 2.0 0.00 0.00 0.00 97
20201025150005 47 109 6.0 2.0 0.00 0.00 0.00 97
20201025145008 47 109 7.0 9.0 0.00 0.00 0.00 97
20201025144018 47 109 3.0 2.0 0.00 0.00 0.00 97
20201025143008 47 109 7.0 4.0 0.00 0.00 0.00 97
20201025142005 47 109 6.0 7.0 0.00 0.00 0.00 97
20201025141011 47 108 6.0 4.0 0.00 0.00 0.00 96
20201025140016 47 107 3.0 2.0 0.00 0.00 0.00 97
20201025135004 47 108 6.0 4.0 0.00 0.00 0.00 97
20201025134005 47 107 5.0 4.0 0.00 0.00 0.00 97
20201025133017 47 108 5.0 2.0 0.00 0.00 0.00 97
20201025132005 47 108 3.0 2.0 0.00 0.00 0.00 97
20201025131006 47 107 6.0 2.0 0.00 0.00 0.00 97
20201025130024 47 110 3.0 7.0 0.00 0.00 0.00 97
20201025125008 47 114 2.0 2.0 0.00 0.00 0.00 97
20201025124016 47 114 3.0 0.0 0.00 0.00 0.00 97
20201025123018 47 114 1.0 2.0 0.00 0.00 0.00 97
20201025122021 0 114 1.0 0.0 0.00 0.00 0.00 100